This is the latest recevied weather packets stored in our database for station/object YO2LDK-13. If no packets are shown the sender has not sent any weather packets the latest 10 day(s).
| Time | Temp. | Humidity | Pressure | Rain* | Wind** | Luminosity | Snow |
|---|---|---|---|---|---|---|---|
| 1777757719 | 8.33° C | 67% | 1009.5 hPa | 0 mm | - | 0 W/m² | - |
| 1777757419 | 8.33° C | 67% | 1009.1 hPa | 0 mm | - | 0 W/m² | - |
| 1777757119 | 8.33° C | 66% | 1009.1 hPa | 0 mm | - | 0 W/m² | - |
| 1777756819 | 8.33° C | 67% | 1009.5 hPa | 0 mm | - | 0 W/m² | - |
| 1777756519 | 8.33° C | 66% | 1009.5 hPa | 0 mm | - | 0 W/m² | - |
| 1777755919 | 8.89° C | 66% | 1009.5 hPa | 0 mm | - | 0 W/m² | - |
| 1777755619 | 9.44° C | 64% | 1009.5 hPa | 0 mm | - | 0 W/m² | - |
| 1777754119 | 10° C | 59% | 1009.5 hPa | 0 mm | - | 0 W/m² | - |
| 1777753519 | 10.56° C | 56% | 1009.5 hPa | 0 mm | - | 0 W/m² | - |
| 1777753220 | 11.11° C | 56% | 1009.5 hPa | 0 mm | - | 0 W/m² | - |
| 1777752920 | 11.11° C | 54% | 1009.5 hPa | 0 mm | - | 0 W/m² | - |
| 1777752620 | 11.67° C | 53% | 1009.5 hPa | 0 mm | - | 0 W/m² | - |
| 1777752319 | 11.67° C | 52% | 1009.5 hPa | 0 mm | - | 0 W/m² | - |
| 1777752019 | 12.22° C | 51% | 1009.5 hPa | 0 mm | - | 0 W/m² | - |
| 1777751719 | 12.78° C | 51% | 1009.5 hPa | 0 mm | - | 0 W/m² | - |
| 1777751419 | 12.78° C | 50% | 1009.5 hPa | 0 mm | - | 0 W/m² | - |
| 1777751120 | 13.33° C | 48% | 1009.1 hPa | 0 mm | - | 0 W/m² | - |
| 1777750524 | 13.89° C | 46% | 1009.1 hPa | 0 mm | - | 0 W/m² | - |
| 1777750219 | 13.89° C | 46% | 1009.1 hPa | 0 mm | - | 0 W/m² | - |
| 1777749919 | 13.89° C | 46% | 1009.1 hPa | 0 mm | - | 0 W/m² | - |
| 1777749619 | 13.33° C | 46% | 1009.1 hPa | 0 mm | - | 0 W/m² | - |
| 1777749320 | 13.33° C | 46% | 1009.1 hPa | 0 mm | - | 0 W/m² | - |
| 1777749019 | 13.33° C | 47% | 1009.1 hPa | 0 mm | - | 0 W/m² | - |
| 1777748719 | 13.33° C | 47% | 1009.1 hPa | 0 mm | - | 0 W/m² | - |
| 1777748119 | 13.33° C | 47% | 1009.1 hPa | 0 mm | - | 0 W/m² | - |
* Rain latest hour (hover to see other rain measurements)
** Current wind speed in m/s (hover to see current wind gust speed)